Location: Perryvale
(54.4667°N, 113.3833°W)
Time: 00:10:04
(UTC+00:00)

Vanguard 1 Rocket - Pass Details

Date: 19 May 2024
Orbit: 649 x 4221 km, 34.3° (Epoch: 13 June)

Event Time Altitude Azimuth Distance (km) Brightness Sun altitude
Rises 19:54:21 0° 246° (WSW) 6,633 12.1 55.2°
Reaches altitude 10° 20:00:39 10° 235° (SW) 4,904 11.7 55.1°
Maximum altitude 20:09:10 22° 192° (SSW) 3,015 11.2 54.7°
Drops below altitude 10° 20:14:50 10° 146° (SE) 3,112 10.6 54.5°
Sets 20:17:44 0° 129° (SE) 3,722 10.7 54.4°
